Location: Apeadero de Los Molinos-Guadarrama
(40.7091°N, 4.0689°W)
Time: 11:47:33
(UTC+00:00)

CARTOSAT-1 - Pass Details

Date: 14 May 2021
Orbit: 616 x 618 km, 97.8° (Epoch: 18 June)

Event Time Altitude Azimuth Distance (km) Brightness Sun altitude
Exits shadow 21:46:22 59° 171° (S) 715 3.5 -21.4°
Maximum altitude 21:47:10 87° 255° (WSW) 624 3.5 -21.5°
Drops below altitude 10° 21:51:31 10° 347° (NNW) 1,989 7.1 -22.0°
Sets 21:53:42 0° 348° (NNW) 2,899 8.1 -22.3°
